COSMOS 2251 DEB, 35718

Orbit data source: Space-Track

COSMOS 2251 DEB, 35718 is space debris in LEO originally from a launch on Wed, 16 Jun 1993 UTC launched from the Plesetsk Missile And Space Complex (PKMTR). The debris from Iridium 33, an American commercial communications satellite, has been tracked extensively since its accidental collision with the defunct Russian satellite Cosmos 2251 in 2009. This event, occurring at high speed in low Earth orbit (LEO), generated thousands of pieces of space debris, significantly increasing the risk of further collisions. The Iridium 33 debris cloud has impacted space traffic management and orbital debris mitigation strategies, making it a subject of ongoing study in space situational awareness.

Loading next visibility...
Identifier
35718, 1993-036AQP
Orbit
LEO
Country
Flag of CISCIS
Related business
Manufacturer
Unknown
Mission
Spacecraft
Bus & Motor
Unknown
Mass
Unknown
Launch date (UTC)
1993-06-16 (32 years ago)
Launch vehicle
Unknown
Launch site
Plesetsk Missile And Space Complex (PKMTR)
Object type
Payload
Rocket body
Debris
Shape & HBR
Unknown shape, 0.1 m
Radar Cross Section
Small (<0.1 m²)

Expand to show TLE details & history
Last TLE update: 20 hours ago

TLE from 20 hours ago
0 COSMOS 2251 DEB
1 35718U 93036AQP 25307.97893773  .00009592  00000-0  16851-2 0  9993
2 35718  74.0335 204.9179 0014052 258.8824 101.0766 14.67709461652716
Epoch: 2025-11-03T23:29Z
TLE epoch observation values (Epoch: 2025-11-03T23:29:40.219Z)
Latitude
-0.00004°
Longitude
169.02776°
Altitude
672.955 km
Speed
7.52 km/s
True Right ascension
13h 39m 40s
True Declination
0° 00' 00"
Sunlit
Object was in daylight at epoch
Visualization orbit readout
Latitude
Unknown
Longitude
Unknown
Altitude
Unknown
Speed
Unknown
Apparent Right ascension
Unknown
Apparent Declination
Unknown
Sunlit
N/A
Visualization observer readout
Local Sidereal Time
15:46:29
Azimuth
Unknown
Elevation
Unknown
Doppler factor
Unknown
Orbital elements
Apogee altitude
675.878 km
Perigee altitude
656.081 km
Semi-major axis
7,044.116 km
Eccentricity
0.00141
Inclination
74.0335°
RAAN
204.9179°
Arg. of periapsis
258.8824°
True anomaly
101.23457°
Mean anomaly
101.0766°
Eccentric anomaly
101.15559°
Mean motion
3.67116 °/min
Orbital period
98.06 mins
BSTAR
0.0016851

Documentation

Showing up to 5 results
|